Tracking 22879 objects as of 20-Apr-2021
HD Live streaming from Space Station
objects crossing your sky now

ONEWEB-0023

Track ONEWEB-0023 now!
10-day predictions
ONEWEB-0023 is classified as:


NORAD ID: 45136
Int'l Code: 2020-008F
Perigee: 1,226.7 km
Apogee: 1,231.0 km
Inclination: 87.9 °
Period: 109.9 minutes
Semi major axis: 7599 km
RCS: Unknown
Launch date: February 6, 2020
Source: United Kingdom (UK)
Launch site: TYURATAM MISSILE AND SPACE COMPLEX (TTMTR)
aabbcc
Your satellite tracking list
Your tracking list is empty




NASA's NSSDC Master Catalog

Two Line Element Set (TLE):
1 45136U 20008F   21109.87548285 -.00000211  00000-0 -64018-3 0  9997
2 45136  87.8795  50.8706 0002824  74.2085 285.9353 13.10377169 61306
Source of the keplerian elements: AFSPC